| time (UTC) | temp F | wind direction | speed MPH | gust MPH | rain 1hr in | rain 24hr in | rain mn in | humidity % | barometer mb |
| 20260506024053 | 39 | 0.0 | 0.0 | 0.00 | 0.07 | 0.00 | 94 | 1014.7 | |
| 20260506023049 | 39 | 0.0 | 2.0 | 0.00 | 0.07 | 0.00 | 94 | 1014.6 | |
| 20260506022043 | 39 | 15 | 0.0 | 2.0 | 0.00 | 0.07 | 0.00 | 94 | 1014.6 |
| 20260506021038 | 39 | 56 | 1.0 | 2.0 | 0.00 | 0.07 | 0.00 | 94 | 1014.9 |
| 20260506020033 | 39 | 0.0 | 2.0 | 0.00 | 0.07 | 0.00 | 94 | 1014.8 | |
| 20260506015028 | 39 | 0.0 | 0.0 | 0.00 | 0.07 | 0.00 | 94 | 1014.8 | |
| 20260506014023 | 39 | 0.0 | 0.0 | 0.00 | 0.07 | 0.00 | 94 | 1014.7 | |
| 20260506013018 | 39 | 0.0 | 0.0 | 0.00 | 0.07 | 0.00 | 94 | 1014.8 | |
| 20260506012113 | 40 | 56 | 1.0 | 2.0 | 0.00 | 0.07 | 0.00 | 94 | 1014.8 |
| 20260506011131 | 40 | 75 | 2.0 | 4.0 | 0.00 | 0.07 | 0.00 | 94 | 1014.9 |
| 20260506010124 | 40 | 0.0 | 0.0 | 0.00 | 0.07 | 0.00 | 94 | 1014.8 | |
| 20260506005058 | 40 | 45 | 1.0 | 2.0 | 0.00 | 0.07 | 0.00 | 94 | 1015.0 |
| 20260506004054 | 40 | 45 | 0.0 | 2.0 | 0.00 | 0.07 | 0.00 | 93 | 1015.1 |
| 20260506003049 | 40 | 78 | 2.0 | 2.0 | 0.00 | 0.07 | 0.00 | 93 | 1015.0 |
| 20260506002044 | 41 | 0.0 | 0.0 | 0.00 | 0.07 | 0.00 | 93 | 1015.2 | |
| 20260506001119 | 41 | 0.0 | 0.0 | 0.00 | 0.07 | 0.00 | 93 | 1015.2 | |
| 20260506000034 | 42 | 225 | 0.0 | 2.0 | 0.00 | 0.07 | 0.00 | 93 | 1015.2 |
| 20260505235029 | 41 | 0.0 | 2.0 | 0.00 | 0.07 | 0.00 | 92 | 1015.1 | |
| 20260505234024 | 42 | 0.0 | 0.0 | 0.00 | 0.07 | 0.00 | 92 | 1015.2 | |
| 20260505233040 | 42 | 0.0 | 0.0 | 0.00 | 0.07 | 0.00 | 92 | 1015.2 | |
| 20260505232114 | 42 | 0.0 | 0.0 | 0.00 | 0.07 | 0.00 | 91 | 1015.1 | |
| 20260505231110 | 42 | 0.0 | 0.0 | 0.00 | 0.07 | 0.00 | 91 | 1015.2 | |
| 20260505230104 | 42 | 56 | 1.0 | 2.0 | 0.00 | 0.07 | 0.00 | 91 | 1015.1 |
| 20260505225119 | 43 | 45 | 0.0 | 4.0 | 0.00 | 0.07 | 0.00 | 91 | 1015.4 |
| 20260505224115 | 43 | 0 | 0.0 | 2.0 | 0.00 | 0.07 | 0.00 | 90 | 1015.3 |
| 20260505223109 | 43 | 45 | 3.0 | 4.0 | 0.00 | 0.07 | 0.00 | 90 | 1015.4 |
| 20260505222046 | 43 | 67 | 4.0 | 6.0 | 0.00 | 0.07 | 0.00 | 90 | 1015.4 |
| 20260505221041 | 43 | 53 | 1.0 | 2.0 | 0.00 | 0.07 | 0.00 | 90 | 1015.5 |
| 20260505220034 | 44 | 338 | 2.0 | 2.0 | 0.00 | 0.07 | 0.00 | 89 | 1015.6 |
| 20260505215028 | 44 | 0.0 | 0.0 | 0.00 | 0.07 | 0.07 | 89 | 1015.6 | |
| 20260505214023 | 43 | 45 | 1.0 | 2.0 | 0.00 | 0.07 | 0.07 | 90 | 1015.6 |
| 20260505213039 | 44 | 23 | 1.0 | 2.0 | 0.00 | 0.07 | 0.07 | 90 | 1015.7 |
| 20260505212114 | 44 | 23 | 0.0 | 2.0 | 0.00 | 0.07 | 0.07 | 90 | 1015.9 |
| 20260505211109 | 44 | 0 | 0.0 | 2.0 | 0.00 | 0.07 | 0.07 | 89 | 1015.8 |
| 20260505210104 | 44 | 329 | 2.0 | 4.0 | 0.00 | 0.07 | 0.07 | 88 | 1015.8 |
| 20260505205100 | 44 | 340 | 1.0 | 4.0 | 0.00 | 0.07 | 0.07 | 87 | 1015.6 |
| 20260505204053 | 44 | 45 | 3.0 | 4.0 | 0.00 | 0.07 | 0.07 | 87 | 1015.4 |
| 20260505203048 | 45 | 0.0 | 0.0 | 0.00 | 0.07 | 0.07 | 87 | 1015.5 | |
| 20260505202103 | 45 | 45 | 0.0 | 2.0 | 0.00 | 0.07 | 0.07 | 86 | 1015.4 |
| 20260505201039 | 45 | 0.0 | 2.0 | 0.00 | 0.07 | 0.07 | 86 | 1015.4 | |
| 20260505200035 | 45 | 45 | 1.0 | 2.0 | 0.00 | 0.07 | 0.07 | 84 | 1015.4 |
| 20260505195029 | 45 | 343 | 0.0 | 2.0 | 0.00 | 0.07 | 0.07 | 84 | 1015.2 |
| 20260505194024 | 45 | 23 | 1.0 | 2.0 | 0.00 | 0.09 | 0.07 | 83 | 1015.1 |
| 20260505193019 | 46 | 45 | 3.0 | 4.0 | 0.00 | 0.13 | 0.07 | 81 | 1014.8 |
| 20260505192134 | 46 | 42 | 4.0 | 4.0 | 0.00 | 0.15 | 0.07 | 81 | 1014.7 |
| 20260505191109 | 46 | 45 | 3.0 | 4.0 | 0.00 | 0.15 | 0.07 | 81 | 1014.8 |
| 20260505190104 | 47 | 45 | 4.0 | 6.0 | 0.00 | 0.15 | 0.07 | 79 | 1014.5 |
| 20260505185059 | 47 | 48 | 3.0 | 6.0 | 0.00 | 0.15 | 0.07 | 78 | 1014.5 |
| 20260505184054 | 47 | 54 | 5.0 | 8.0 | 0.00 | 0.15 | 0.07 | 79 | 1014.5 |
| 20260505183049 | 47 | 35 | 4.0 | 7.0 | 0.00 | 0.15 | 0.07 | 78 | 1014.5 |
| 20260505182044 | 47 | 48 | 5.0 | 6.0 | 0.00 | 0.15 | 0.07 | 79 | 1014.2 |
| 20260505181040 | 46 | 42 | 4.0 | 6.0 | 0.00 | 0.15 | 0.07 | 81 | 1014.4 |
| 20260505180034 | 46 | 49 | 6.0 | 8.0 | 0.00 | 0.15 | 0.07 | 81 | 1014.4 |
| 20260505175029 | 47 | 58 | 5.0 | 7.0 | 0.00 | 0.15 | 0.07 | 82 | 1014.4 |
| 20260505174044 | 47 | 45 | 3.0 | 6.0 | 0.00 | 0.15 | 0.07 | 83 | 1014.4 |
| 20260505173019 | 46 | 40 | 3.0 | 6.0 | 0.01 | 0.15 | 0.07 | 85 | 1014.3 |
| 20260505172115 | 45 | 45 | 8.0 | 11.0 | 0.02 | 0.25 | 0.07 | 86 | 1014.5 |
| 20260505171110 | 45 | 40 | 2.0 | 6.0 | 0.02 | 0.52 | 0.07 | 87 | 1014.7 |
| 20260505170105 | 45 | 356 | 5.0 | 9.0 | 0.02 | 0.59 | 0.07 | 86 | 1014.6 |
| 20260505165100 | 45 | 340 | 7.0 | 13.0 | 0.02 | 0.59 | 0.07 | 86 | 1014.9 |
| 20260505164056 | 46 | 358 | 4.0 | 11.0 | 0.02 | 0.59 | 0.07 | 85 | 1014.8 |
| 20260505163050 | 47 | 303 | 6.0 | 11.0 | 0.01 | 0.58 | 0.06 | 80 | 1014.9 |
| 20260505162105 | 48 | 276 | 3.0 | 7.0 | 0.02 | 0.57 | 0.05 | 77 | 1014.7 |
| 20260505161040 | 47 | 207 | 4.0 | 7.0 | 0.02 | 0.57 | 0.05 | 78 | 1014.4 |
| 20260505153020 | 46 | 199 | 4.0 | 8.0 | 0.05 | 0.57 | 0.05 | 79 | 1014.2 |
| 20260505152115 | 47 | 302 | 8.0 | 13.0 | 0.02 | 0.54 | 0.02 | 78 | 1014.4 |
| 20260505151110 | 47 | 278 | 6.0 | 13.0 | 0.02 | 0.54 | 0.02 | 80 | 1014.2 |
| 20260505150106 | 47 | 341 | 6.0 | 13.0 | 0.00 | 0.52 | 0.00 | 77 | 1014.3 |
| 20260505130146 | 52 | 206 | 10.0 | 16.0 | 0.00 | 0.52 | 0.00 | 60 | 1013.9 |
| 20260505124055 | 52 | 232 | 10.0 | 15.0 | 0.00 | 0.53 | 0.00 | 59 | 1014.0 |
| 20260505123050 | 53 | 233 | 10.0 | 15.0 | 0.00 | 0.56 | 0.00 | 60 | 1014.0 |
| 20260505122045 | 51 | 222 | 11.0 | 16.0 | 0.00 | 0.57 | 0.00 | 63 | 1013.9 |
| 20260505121040 | 50 | 222 | 11.0 | 16.0 | 0.00 | 0.57 | 0.00 | 62 | 1013.8 |
| 20260505120035 | 50 | 232 | 8.0 | 14.0 | 0.00 | 0.57 | 0.00 | 64 | 1014.0 |
| 20260505115030 | 50 | 228 | 8.0 | 15.0 | 0.00 | 0.57 | 0.00 | 66 | 1014.0 |
| 20260505114025 | 50 | 229 | 9.0 | 14.0 | 0.00 | 0.57 | 0.00 | 64 | 1014.2 |
| 20260505113021 | 50 | 264 | 9.0 | 13.0 | 0.00 | 0.58 | 0.00 | 65 | 1014.3 |
| 20260505112015 | 49 | 234 | 9.0 | 14.0 | 0.00 | 0.58 | 0.00 | 66 | 1014.4 |
| 20260505111111 | 49 | 222 | 9.0 | 15.0 | 0.00 | 0.60 | 0.00 | 68 | 1014.6 |
| 20260505110106 | 49 | 237 | 8.0 | 14.0 | 0.00 | 0.65 | 0.00 | 68 | 1014.5 |
| 20260505102046 | 48 | 200 | 7.0 | 11.0 | 0.00 | 0.66 | 0.00 | 73 | 1014.5 |
| 20260505101041 | 48 | 215 | 6.0 | 9.0 | 0.00 | 0.66 | 0.00 | 74 | 1014.7 |
| 20260505100036 | 49 | 165 | 7.0 | 11.0 | 0.00 | 0.66 | 0.00 | 73 | 1014.5 |
| 20260505095032 | 47 | 209 | 7.0 | 11.0 | 0.00 | 0.72 | 0.00 | 74 | 1014.6 |
| 20260505094026 | 47 | 216 | 5.0 | 8.0 | 0.00 | 0.78 | 0.00 | 78 | 1014.7 |
| 20260505093042 | 47 | 191 | 9.0 | 13.0 | 0.00 | 0.78 | 0.00 | 76 | 1014.8 |
| 20260505092017 | 47 | 193 | 7.0 | 11.0 | 0.00 | 0.78 | 0.00 | 77 | 1014.6 |
| 20260505091111 | 46 | 218 | 6.0 | 11.0 | 0.00 | 0.78 | 0.00 | 78 | 1014.6 |
| 20260505090106 | 46 | 234 | 4.0 | 7.0 | 0.00 | 0.78 | 0.00 | 78 | 1014.6 |
| 20260505085101 | 46 | 223 | 6.0 | 11.0 | 0.00 | 0.78 | 0.00 | 82 | 1014.8 |
| 20260505084056 | 45 | 237 | 5.0 | 9.0 | 0.00 | 0.78 | 0.00 | 84 | 1014.8 |
| 20260505083051 | 46 | 250 | 4.0 | 7.0 | 0.00 | 0.78 | 0.00 | 86 | 1014.8 |
| 20260505082046 | 46 | 234 | 3.0 | 7.0 | 0.00 | 0.78 | 0.00 | 86 | 1014.9 |
| 20260505081043 | 44 | 251 | 3.0 | 6.0 | 0.00 | 0.78 | 0.00 | 87 | 1014.9 |
| 20260505080036 | 44 | 212 | 6.0 | 9.0 | 0.00 | 0.78 | 0.00 | 87 | 1014.9 |
| 20260505075032 | 44 | 209 | 2.0 | 6.0 | 0.00 | 0.78 | 0.00 | 88 | 1014.8 |
| 20260505074027 | 44 | 201 | 3.0 | 4.0 | 0.00 | 0.78 | 0.00 | 89 | 1014.9 |
| 20260505073022 | 43 | 234 | 2.0 | 6.0 | 0.00 | 0.78 | 0.00 | 89 | 1014.9 |
| 20260505072018 | 43 | 213 | 4.0 | 7.0 | 0.00 | 0.78 | 0.00 | 90 | 1014.8 |
| 20260505071112 | 43 | 213 | 3.0 | 6.0 | 0.00 | 0.78 | 0.00 | 90 | 1014.8 |
| 20260505070108 | 43 | 224 | 4.0 | 7.0 | 0.00 | 0.78 | 0.00 | 91 | 1014.8 |
| 20260505065102 | 42 | 211 | 4.0 | 7.0 | 0.00 | 0.78 | 0.00 | 91 | 1014.7 |
| 20260505064117 | 42 | 221 | 4.0 | 6.0 | 0.00 | 0.78 | 0.00 | 91 | 1014.6 |
| 20260505063053 | 42 | 212 | 4.0 | 6.0 | 0.00 | 0.78 | 0.00 | 91 | 1014.4 |
| 20260505062047 | 42 | 198 | 2.0 | 4.0 | 0.00 | 0.78 | 0.00 | 91 | 1014.3 |
| 20260505061042 | 42 | 228 | 2.0 | 4.0 | 0.00 | 0.78 | 0.00 | 91 | 1014.4 |
| 20260505060119 | 42 | 206 | 3.0 | 4.0 | 0.00 | 0.78 | 0.00 | 92 | 1014.3 |
| 20260505055052 | 42 | 234 | 1.0 | 4.0 | 0.00 | 0.78 | 0.00 | 92 | 1014.4 |
| 20260505054027 | 41 | 217 | 3.0 | 4.0 | 0.00 | 0.78 | 0.00 | 93 | 1014.3 |
| 20260505053022 | 41 | 218 | 2.0 | 4.0 | 0.00 | 0.78 | 0.00 | 92 | 1014.2 |
| 20260505052017 | 41 | 221 | 2.0 | 4.0 | 0.00 | 0.78 | 0.00 | 93 | 1014.3 |
| 20260505051112 | 41 | 203 | 1.0 | 2.0 | 0.00 | 0.78 | 0.00 | 93 | 1014.1 |
| 20260505050148 | 41 | 203 | 1.0 | 2.0 | 0.00 | 0.78 | 0.00 | 93 | 1014.2 |
| 20260505041043 | 41 | 225 | 1.0 | 2.0 | 0.00 | 0.78 | 0.00 | 94 | 1014.2 |
| 20260505040038 | 41 | 213 | 3.0 | 4.0 | 0.00 | 0.78 | 0.00 | 94 | 1014.4 |
| 20260505035033 | 41 | 215 | 1.0 | 4.0 | 0.00 | 0.78 | 0.00 | 94 | 1014.5 |
| 20260505034028 | 41 | 235 | 2.0 | 4.0 | 0.00 | 0.78 | 0.00 | 94 | 1014.3 |
| 20260505033023 | 41 | 283 | 2.0 | 4.0 | 0.00 | 0.78 | 0.00 | 94 | 1014.2 |
| 20260505032018 | 41 | 0.0 | 2.0 | 0.00 | 0.78 | 0.00 | 94 | 1014.3 | |
| 20260505031133 | 41 | 293 | 0.0 | 2.0 | 0.00 | 0.78 | 0.00 | 94 | 1014.2 |
| 20260505030109 | 41 | 248 | 0.0 | 2.0 | 0.00 | 0.78 | 0.00 | 94 | 1014.5 |
| 20260505025104 | 41 | 268 | 3.0 | 4.0 | 0.00 | 0.78 | 0.00 | 93 | 1014.2 |